Retour au catalogue

OPS 7329

ActifNavigationMEO
NORAD 4510·PAYLOAD·🇺🇸 United States

Lancé Sep 1, 1970 depuis Cape Canaveral Space Force Station

Loading…

Prochains Passages (prochaines 24 heures)

TLE

FraisSource: Space-Track

Époque: Sep 14, 2026, 10:50 UTC

1 04510U 70069A   26257.45169959  .00000073  00000-0  00000-0 0  9992
2 04510  10.6936 154.5442 1010094 112.6519 105.1761  1.00183117 25686

Suivez OPS 7329 en temps réel avec AllMySat

Download on the App Store